GIA8082 WIMM-OEMA

Flight info

Callsign GIA8082
Flight time 8h 34m
Altitude 34000
Route MAIMU DCT MEMAK N563 ADKIT/N0478F360 N563 REXOD/N0476F380 L883 UMILA N569 TOKRA DCT ITRUX Y511 ELONU
Aircraft A333/H-SDE3GHIJ2J3J5M1RVWXY/LB2D1

Departure

Time 2026-04-26 23:12
Airport Kualanamu International Airport (WIMM)

Arrival

Time 2026-04-27 07:47
Airport Prince Mohammad Bin Abdulaziz Airport (OEMA)
Time Latitude Longitude Altitude Speed Heading
2026-04-26 22:58 3.61539 98.85383 40 ft 0 kts 135°
2026-04-26 22:59 3.61545 98.85377 40 ft 2 kts 135°
2026-04-26 22:59 3.61556 98.85366 40 ft 2 kts 135°
2026-04-26 23:00 3.61568 98.85354 40 ft 2 kts 135°
2026-04-26 23:00 3.61580 98.85343 40 ft 2 kts 135°
2026-04-26 23:00 3.61591 98.85331 40 ft 2 kts 135°
2026-04-26 23:00 3.61602 98.85321 40 ft 1 kts 135°
2026-04-26 23:01 3.61603 98.85320 40 ft 0 kts 135°
2026-04-26 23:04 3.61602 98.85321 40 ft 1 kts 135°
2026-04-26 23:04 3.61591 98.85327 40 ft 0 kts 166°
2026-04-26 23:04 3.61578 98.85325 40 ft 1 kts 209°
2026-04-26 23:05 3.61565 98.85311 40 ft 7 kts 229°
2026-04-26 23:05 3.61540 98.85272 40 ft 12 kts 256°
2026-04-26 23:05 3.61574 98.85192 40 ft 14 kts 309°
2026-04-26 23:05 3.61559 98.85092 40 ft 10 kts 232°
2026-04-26 23:06 3.61506 98.85035 40 ft 12 kts 225°
2026-04-26 23:06 3.61466 98.84993 40 ft 13 kts 225°
2026-04-26 23:06 3.61400 98.84927 40 ft 13 kts 224°
2026-04-26 23:06 3.61336 98.84859 40 ft 14 kts 237°
2026-04-26 23:07 3.61322 98.84775 40 ft 1 kts 292°
2026-04-26 23:07 3.61323 98.84775 40 ft 0 kts 292°
2026-04-26 23:10 3.61323 98.84774 40 ft 0 kts 292°
2026-04-26 23:10 3.61334 98.84753 40 ft 7 kts 299°
2026-04-26 23:10 3.61385 98.84716 40 ft 11 kts
2026-04-26 23:10 3.61422 98.84732 40 ft 0 kts 40°
2026-04-26 23:11 3.61429 98.84738 40 ft 9 kts 40°
2026-04-26 23:11 3.61601 98.84908 40 ft 60 kts 46°
2026-04-26 23:11 3.62016 98.85323 40 ft 108 kts 45°
2026-04-26 23:12 3.62665 98.85973 40 ft 153 kts 45°
2026-04-26 23:12 3.63486 98.86785 237 ft 172 kts 44°
2026-04-26 23:12 3.64362 98.87610 689 ft 173 kts 34°
2026-04-26 23:12 3.65504 98.87981 1162 ft 174 kts
2026-04-26 23:13 3.66673 98.87705 1624 ft 177 kts 329°
2026-04-26 23:13 3.67613 98.86832 1781 ft 198 kts 314°
2026-04-26 23:13 3.68647 98.85787 1894 ft 226 kts 315°
2026-04-26 23:13 3.69812 98.84570 1991 ft 257 kts 314°
2026-04-26 23:14 3.71065 98.83224 2445 ft 266 kts 313°
2026-04-26 23:14 3.72324 98.81855 3110 ft 269 kts 313°
2026-04-26 23:14 3.73597 98.80459 3733 ft 271 kts 312°
2026-04-26 23:14 3.74873 98.79053 4367 ft 273 kts 312°
2026-04-26 23:15 3.76155 98.77638 4823 ft 284 kts 312°
2026-04-26 23:15 3.77519 98.76128 4951 ft 307 kts 312°
2026-04-26 23:15 3.78967 98.74522 4984 ft 300 kts 312°
2026-04-26 23:15 3.80317 98.73024 4990 ft 286 kts 312°
2026-04-26 23:16 3.81635 98.71561 4994 ft 278 kts 311°
2026-04-26 23:16 3.82802 98.69994 5132 ft 281 kts 301°
2026-04-26 23:16 3.83664 98.68287 5728 ft 278 kts 291°
2026-04-26 23:16 3.84365 98.66468 6165 ft 282 kts 291°
2026-04-26 23:17 3.85075 98.64643 6657 ft 284 kts 291°
2026-04-26 23:17 3.85787 98.62778 7143 ft 286 kts 291°
2026-04-26 23:17 3.86495 98.60898 7613 ft 289 kts 291°
2026-04-26 23:17 3.87202 98.59005 8099 ft 290 kts 291°
2026-04-26 23:18 3.87904 98.57121 8561 ft 293 kts 291°
2026-04-26 23:18 3.88605 98.55231 9013 ft 295 kts 291°
2026-04-26 23:18 3.89332 98.53267 9469 ft 297 kts 291°
2026-04-26 23:18 3.90052 98.51320 9918 ft 299 kts 291°
2026-04-26 23:19 3.90784 98.49340 10066 ft 314 kts 291°
2026-04-26 23:19 3.91560 98.47239 10151 ft 329 kts 291°
2026-04-26 23:19 3.92379 98.45020 10236 ft 345 kts 291°
2026-04-26 23:19 3.93220 98.42741 10365 ft 358 kts 291°
2026-04-26 23:20 3.94085 98.40394 10858 ft 360 kts 291°
2026-04-26 23:20 3.94960 98.38022 11291 ft 364 kts 291°
2026-04-26 23:20 3.95846 98.35618 11746 ft 367 kts 291°
2026-04-26 23:20 3.96725 98.33237 12172 ft 370 kts 291°
2026-04-26 23:21 3.97620 98.30808 12610 ft 374 kts 291°
2026-04-26 23:21 3.98539 98.28342 13042 ft 377 kts 292°
2026-04-26 23:21 3.99484 98.25898 13461 ft 380 kts 292°
2026-04-26 23:21 4.00444 98.23422 13871 ft 383 kts 292°
2026-04-26 23:22 4.01413 98.20921 14278 ft 386 kts 292°
2026-04-26 23:22 4.02386 98.18409 14710 ft 388 kts 292°
2026-04-26 23:22 4.03365 98.15882 15089 ft 391 kts 292°
2026-04-26 23:22 4.04345 98.13351 15484 ft 394 kts 292°
2026-04-26 23:23 4.05343 98.10771 15894 ft 396 kts 292°
2026-04-26 23:23 4.06334 98.08212 16258 ft 399 kts 292°
2026-04-26 23:23 4.07347 98.05598 16633 ft 402 kts 292°
2026-04-26 23:23 4.08353 98.02998 16997 ft 405 kts 292°
2026-04-26 23:24 4.09377 98.00355 17359 ft 408 kts 292°
2026-04-26 23:24 4.10411 97.97679 17718 ft 411 kts 292°
2026-04-26 23:24 4.11437 97.95026 18091 ft 412 kts 293°
2026-04-26 23:24 4.12482 97.92330 18444 ft 415 kts 293°
2026-04-26 23:25 4.13531 97.89625 18798 ft 417 kts 292°
2026-04-26 23:25 4.14584 97.86910 19145 ft 419 kts 292°
2026-04-26 23:25 4.15633 97.84204 19484 ft 421 kts 292°
2026-04-26 23:25 4.16699 97.81456 19822 ft 423 kts 292°
2026-04-26 23:26 4.17768 97.78697 20154 ft 425 kts 292°
2026-04-26 23:26 4.18845 97.75913 20483 ft 427 kts 292°
2026-04-26 23:26 4.19923 97.73132 20803 ft 429 kts 292°
2026-04-26 23:26 4.20990 97.70383 21128 ft 431 kts 292°
2026-04-26 23:27 4.22081 97.67570 21466 ft 431 kts 292°
2026-04-26 23:27 4.23165 97.64770 21814 ft 433 kts 292°
2026-04-26 23:27 4.24263 97.61938 22042 ft 436 kts 292°
2026-04-26 23:27 4.25350 97.59133 22391 ft 436 kts 292°
2026-04-26 23:28 4.26457 97.56281 22637 ft 439 kts 292°
2026-04-26 23:28 4.27569 97.53414 22921 ft 441 kts 292°
2026-04-26 23:28 4.28683 97.50541 23189 ft 443 kts 292°
2026-04-26 23:28 4.29793 97.47664 23691 ft 438 kts 292°
2026-04-26 23:29 4.30882 97.44847 23920 ft 441 kts 293°
2026-04-26 23:29 4.31992 97.41980 24320 ft 439 kts 293°
2026-04-26 23:29 4.33114 97.39091 24408 ft 445 kts 292°
2026-04-26 23:29 4.34234 97.36215 24534 ft 450 kts 292°
2026-04-26 23:30 4.35375 97.33278 24812 ft 451 kts 292°
2026-04-26 23:30 4.36513 97.30338 25085 ft 452 kts 292°
2026-04-26 23:30 4.37649 97.27405 25316 ft 454 kts 292°
2026-04-26 23:30 4.38783 97.24466 25821 ft 448 kts 292°
2026-04-26 23:31 4.39713 97.21506 26234 ft 444 kts 283°
2026-04-26 23:31 4.40162 97.18492 27118 ft 433 kts 276°
2026-04-26 23:31 4.40171 97.15475 27204 ft 441 kts 266°
2026-04-26 23:31 4.39832 97.12386 27285 ft 446 kts 265°
2026-04-26 23:32 4.39472 97.09277 27379 ft 451 kts 265°
2026-04-26 23:32 4.39111 97.06142 27463 ft 455 kts 264°
2026-04-26 23:32 4.38738 97.02982 27542 ft 460 kts 264°
2026-04-26 23:32 4.38353 96.99858 28042 ft 454 kts 264°
2026-04-26 23:33 4.37969 96.96698 28113 ft 458 kts 264°
2026-04-26 23:33 4.37194 96.90286 28266 ft 468 kts 264°
2026-04-26 23:34 4.36400 96.83787 28521 ft 474 kts 264°
2026-04-26 23:34 4.35993 96.80491 28753 ft 475 kts 264°
2026-04-26 23:34 4.35712 96.77215 29251 ft 465 kts 271°
2026-04-26 23:34 4.35906 96.74023 29557 ft 463 kts 281°
2026-04-26 23:35 4.36662 96.70889 29725 ft 462 kts 290°
2026-04-26 23:35 4.37864 96.67904 30003 ft 460 kts 293°
2026-04-26 23:35 4.39069 96.64937 30092 ft 464 kts 295°
2026-04-26 23:36 4.41702 96.58976 30240 ft 472 kts 296°
2026-04-26 23:36 4.44452 96.52898 30394 ft 480 kts 296°
2026-04-26 23:36 4.45830 96.49861 30498 ft 483 kts 296°
2026-04-26 23:37 4.47232 96.46773 30723 ft 484 kts 296°
2026-04-26 23:37 4.48613 96.43733 30892 ft 485 kts 296°
2026-04-26 23:37 4.50020 96.40637 31071 ft 487 kts 296°
2026-04-26 23:37 4.51429 96.37539 31224 ft 489 kts 296°
2026-04-26 23:38 4.52829 96.34460 31387 ft 490 kts 296°
2026-04-26 23:38 4.54247 96.31340 31577 ft 491 kts 296°
2026-04-26 23:38 4.55666 96.28218 31803 ft 491 kts 296°
2026-04-26 23:38 4.57085 96.25099 32005 ft 491 kts 296°
2026-04-26 23:39 4.58496 96.22002 32186 ft 492 kts 295°
2026-04-26 23:39 4.59916 96.18877 32449 ft 491 kts 295°
2026-04-26 23:39 4.61339 96.15747 32687 ft 490 kts 295°
2026-04-26 23:39 4.62737 96.12669 32886 ft 490 kts 295°
2026-04-26 23:40 4.64155 96.09548 33103 ft 489 kts 295°
2026-04-26 23:40 4.65567 96.06445 33330 ft 488 kts 295°
2026-04-26 23:40 4.66960 96.03381 33547 ft 488 kts 295°
2026-04-26 23:40 4.68373 96.00270 33755 ft 487 kts 295°
2026-04-26 23:41 4.69785 95.97160 33818 ft 490 kts 295°
2026-04-26 23:41 4.72610 95.90937 33857 ft 493 kts 295°
2026-04-26 23:42 4.75459 95.84664 33841 ft 493 kts 295°
2026-04-26 23:42 4.79681 95.75360 33805 ft 485 kts 295°
2026-04-26 23:43 4.82467 95.69221 33813 ft 482 kts 295°
2026-04-26 23:43 4.85229 95.63136 33818 ft 482 kts 295°
2026-04-26 23:44 4.88018 95.56979 33797 ft 485 kts 295°
2026-04-26 23:44 4.90830 95.50779 33791 ft 489 kts 295°
2026-04-26 23:45 4.93640 95.44579 33789 ft 490 kts 295°
2026-04-26 23:45 4.96455 95.38365 33785 ft 490 kts 295°
2026-04-26 23:46 4.99261 95.32171 33786 ft 490 kts 295°
2026-04-26 23:46 5.02070 95.25968 33786 ft 489 kts 295°
2026-04-26 23:47 5.04890 95.19737 33786 ft 489 kts 295°
2026-04-26 23:47 5.07705 95.13519 33785 ft 488 kts 295°
2026-04-26 23:48 5.10502 95.07336 33786 ft 489 kts 295°
2026-04-26 23:48 5.13324 95.01095 33786 ft 490 kts 295°
2026-04-26 23:49 5.16132 94.94885 33786 ft 490 kts 295°
2026-04-26 23:49 5.18941 94.88670 33786 ft 490 kts 295°
2026-04-26 23:50 5.21765 94.82420 33786 ft 490 kts 295°
2026-04-26 23:50 5.24576 94.76197 33786 ft 490 kts 295°
2026-04-26 23:51 5.27378 94.69993 33786 ft 489 kts 295°
2026-04-26 23:51 5.30184 94.63776 33786 ft 489 kts 295°
2026-04-26 23:52 5.32995 94.57549 33786 ft 489 kts 295°
2026-04-26 23:52 5.35790 94.51352 33786 ft 489 kts 295°
2026-04-26 23:53 5.38126 94.46174 33786 ft 489 kts 295°
2026-04-26 23:53 5.41379 94.38959 33786 ft 489 kts 295°
2026-04-26 23:54 5.43715 94.33777 33786 ft 490 kts 295°
2026-04-26 23:54 5.46529 94.27533 33789 ft 490 kts 295°
2026-04-26 23:55 5.49322 94.21330 33796 ft 490 kts 295°
2026-04-26 23:55 5.52124 94.15107 33812 ft 489 kts 295°
2026-04-26 23:56 5.54939 94.08855 33811 ft 489 kts 295°
2026-04-26 23:56 5.57727 94.02659 33813 ft 489 kts 295°
2026-04-26 23:57 5.60525 93.96442 33816 ft 490 kts 295°
2026-04-26 23:57 5.63344 93.90176 33817 ft 491 kts 295°
2026-04-26 23:58 5.66142 93.83948 33817 ft 491 kts 295°
2026-04-26 23:58 5.68959 93.77680 33821 ft 490 kts 295°
2026-04-26 23:59 5.71749 93.71468 33843 ft 489 kts 295°
2026-04-26 23:59 5.74553 93.65226 33839 ft 489 kts 295°
2026-04-27 00:00 5.77343 93.59010 33843 ft 489 kts 295°
2026-04-27 00:00 5.80130 93.52802 33845 ft 490 kts 295°
2026-04-27 00:01 5.82930 93.46555 33947 ft 488 kts 295°
2026-04-27 00:01 5.85718 93.40343 33961 ft 488 kts 295°
2026-04-27 00:02 5.88503 93.34132 33963 ft 489 kts 295°
2026-04-27 00:02 5.91300 93.27892 33947 ft 490 kts 295°
2026-04-27 00:03 5.94084 93.21676 33993 ft 489 kts 295°
2026-04-27 00:03 5.96866 93.15464 34003 ft 488 kts 295°
2026-04-27 00:04 5.99660 93.09226 34011 ft 488 kts 295°
2026-04-27 00:04 6.02459 93.03018 34017 ft 488 kts 295°
2026-04-27 00:05 6.05274 92.96824 34022 ft 489 kts 295°
2026-04-27 00:05 6.08098 92.90619 34022 ft 489 kts 295°
2026-04-27 00:06 6.10916 92.84430 34021 ft 489 kts 295°
2026-04-27 00:06 6.13751 92.78208 34021 ft 488 kts 295°
2026-04-27 00:07 6.16574 92.72010 34022 ft 489 kts 295°
2026-04-27 00:07 6.19397 92.65812 34022 ft 489 kts 295°
2026-04-27 00:08 6.22238 92.59570 34022 ft 489 kts 295°
2026-04-27 00:08 6.25059 92.53371 34022 ft 489 kts 295°
2026-04-27 00:09 6.27887 92.47156 34022 ft 489 kts 295°
2026-04-27 00:09 6.30706 92.40956 34022 ft 488 kts 295°
2026-04-27 00:10 6.33531 92.34740 34022 ft 488 kts 295°
2026-04-27 00:10 6.36346 92.28546 34022 ft 488 kts 295°
2026-04-27 00:11 6.39158 92.22356 34022 ft 488 kts 295°
2026-04-27 00:11 6.41981 92.16136 34022 ft 488 kts 295°
2026-04-27 00:12 6.44807 92.09910 34022 ft 489 kts 295°
2026-04-27 00:12 6.47621 92.03709 34022 ft 489 kts 295°
2026-04-27 00:13 6.50434 91.97505 34021 ft 488 kts 295°
2026-04-27 00:13 6.53247 91.91302 34022 ft 488 kts 295°
2026-04-27 00:14 6.56067 91.85078 34022 ft 487 kts 295°
2026-04-27 00:14 6.58861 91.78910 34022 ft 485 kts 295°
2026-04-27 00:15 6.61658 91.72731 34022 ft 485 kts 295°
2026-04-27 00:15 6.64452 91.66559 34022 ft 486 kts 295°
2026-04-27 00:16 6.67250 91.60375 34023 ft 487 kts 295°
2026-04-27 00:16 6.70053 91.54178 34022 ft 487 kts 295°
2026-04-27 00:17 6.72857 91.47974 34022 ft 486 kts 295°
2026-04-27 00:17 6.75642 91.41812 34022 ft 485 kts 295°
2026-04-27 00:18 6.78448 91.35601 34022 ft 485 kts 295°
2026-04-27 00:18 6.81232 91.29435 34022 ft 485 kts 295°
2026-04-27 00:19 6.84015 91.23270 34022 ft 485 kts 295°
2026-04-27 00:19 6.86808 91.17080 34022 ft 486 kts 295°
2026-04-27 00:20 6.89592 91.10908 34022 ft 486 kts 295°
2026-04-27 00:20 6.92396 91.04687 34022 ft 486 kts 295°
2026-04-27 00:21 6.95176 90.98518 34022 ft 486 kts 295°
2026-04-27 00:21 6.97969 90.92319 34022 ft 486 kts 295°
2026-04-27 00:22 7.00765 90.86109 34022 ft 485 kts 295°
2026-04-27 00:22 7.03540 90.79943 34022 ft 485 kts 294°
2026-04-27 00:23 7.06334 90.73732 34022 ft 486 kts 294°
2026-04-27 00:23 7.09115 90.67548 34022 ft 486 kts 294°
2026-04-27 00:24 7.11909 90.61334 34022 ft 487 kts 294°
2026-04-27 00:24 7.14689 90.55147 34022 ft 487 kts 294°
2026-04-27 00:25 7.17476 90.48940 34022 ft 486 kts 294°
2026-04-27 00:25 7.20259 90.42742 34022 ft 486 kts 294°
2026-04-27 00:26 7.23053 90.36516 34022 ft 487 kts 294°
2026-04-27 00:26 7.25831 90.30323 34022 ft 487 kts 294°
2026-04-27 00:27 7.28626 90.24091 34022 ft 487 kts 294°
2026-04-27 00:27 7.31418 90.17860 34020 ft 487 kts 294°
2026-04-27 00:28 7.34195 90.11662 34022 ft 487 kts 294°
2026-04-27 00:28 7.36970 90.05465 34022 ft 487 kts 294°
2026-04-27 00:29 7.39763 89.99224 33959 ft 489 kts 294°
2026-04-27 00:29 7.41155 89.96112 33833 ft 491 kts 294°
2026-04-27 00:29 7.42565 89.92962 33799 ft 491 kts 294°
2026-04-27 00:30 7.45369 89.86691 33786 ft 489 kts 294°
2026-04-27 00:30 7.48144 89.80485 33798 ft 488 kts 294°
2026-04-27 00:31 7.50940 89.74226 33797 ft 488 kts 294°
2026-04-27 00:31 7.53720 89.68001 33787 ft 489 kts 294°
2026-04-27 00:32 7.56526 89.61716 33786 ft 490 kts 294°
2026-04-27 00:32 7.59314 89.55468 33786 ft 491 kts 294°
2026-04-27 00:33 7.62119 89.49178 33786 ft 491 kts 295°
2026-04-27 00:33 7.64917 89.42903 33786 ft 490 kts 295°
2026-04-27 00:34 7.67697 89.36664 33786 ft 490 kts 295°
2026-04-27 00:34 7.70487 89.30419 33786 ft 489 kts 295°
2026-04-27 00:35 7.73325 89.24159 33786 ft 489 kts 295°
2026-04-27 00:35 7.76158 89.17939 33786 ft 490 kts 295°
2026-04-27 00:36 7.79001 89.11702 33786 ft 491 kts 295°
2026-04-27 00:36 7.81821 89.05519 33786 ft 491 kts 295°
2026-04-27 00:37 7.84666 88.99278 33786 ft 491 kts 295°
2026-04-27 00:37 7.87514 88.93031 33786 ft 491 kts 295°
2026-04-27 00:38 7.90372 88.86758 33786 ft 490 kts 295°
2026-04-27 00:38 7.93224 88.80496 33786 ft 490 kts 295°
2026-04-27 00:39 7.96060 88.74266 33786 ft 490 kts 295°
2026-04-27 00:39 7.98911 88.68002 33786 ft 490 kts 295°
2026-04-27 00:40 8.01754 88.61751 33786 ft 491 kts 295°
2026-04-27 00:40 8.04600 88.55492 33786 ft 491 kts 295°
2026-04-27 00:41 8.07437 88.49248 33786 ft 491 kts 295°
2026-04-27 00:41 8.10290 88.42967 33786 ft 492 kts 295°
2026-04-27 00:42 8.13139 88.36690 33786 ft 492 kts 295°
2026-04-27 00:42 8.15978 88.30436 33786 ft 492 kts 295°
2026-04-27 00:43 8.18820 88.24166 33786 ft 492 kts 295°
2026-04-27 00:43 8.21672 88.17873 33786 ft 492 kts 295°
2026-04-27 00:44 8.24052 88.12620 33786 ft 492 kts 295°
2026-04-27 00:44 8.26365 88.07514 33786 ft 492 kts 295°
2026-04-27 00:45 8.29193 88.01264 33786 ft 492 kts 295°
2026-04-27 00:45 8.32045 87.94963 33786 ft 492 kts 295°
2026-04-27 00:46 8.34879 87.88696 33786 ft 492 kts 295°
2026-04-27 00:46 8.37724 87.82402 33786 ft 492 kts 295°
2026-04-27 00:47 8.40552 87.76142 33786 ft 492 kts 295°
2026-04-27 00:47 8.43399 87.69835 33786 ft 493 kts 295°
2026-04-27 00:48 8.46232 87.63559 33786 ft 492 kts 295°
2026-04-27 00:48 8.49084 87.57238 33786 ft 492 kts 295°
2026-04-27 00:49 8.51913 87.50961 33786 ft 492 kts 295°
2026-04-27 00:49 8.54744 87.44680 33786 ft 492 kts 295°
2026-04-27 00:50 8.59002 87.35225 33786 ft 492 kts 295°
2026-04-27 00:51 8.61825 87.28952 33786 ft 493 kts 295°
2026-04-27 00:51 8.64662 87.22645 33786 ft 493 kts 295°
2026-04-27 00:52 8.67501 87.16332 33786 ft 493 kts 295°
2026-04-27 00:52 8.70339 87.10015 33787 ft 493 kts 295°
2026-04-27 00:53 8.73159 87.03736 33786 ft 493 kts 295°
2026-04-27 00:53 8.75995 86.97417 33786 ft 492 kts 295°
2026-04-27 00:54 8.78813 86.91137 33789 ft 492 kts 295°
2026-04-27 00:54 8.81653 86.84806 33791 ft 493 kts 294°
2026-04-27 00:55 8.84473 86.78508 33792 ft 493 kts 295°
2026-04-27 00:55 8.87295 86.72211 33793 ft 493 kts 294°
2026-04-27 00:56 8.90132 86.65878 33799 ft 493 kts 294°
2026-04-27 00:56 8.92964 86.59547 33801 ft 493 kts 294°
2026-04-27 00:57 8.95775 86.53259 33801 ft 494 kts 294°
2026-04-27 00:57 8.98617 86.46910 33816 ft 493 kts 294°
2026-04-27 00:58 9.01430 86.40611 33831 ft 494 kts 294°
2026-04-27 00:58 9.04261 86.34262 33832 ft 494 kts 294°
2026-04-27 00:59 9.07084 86.27937 33830 ft 495 kts 294°
2026-04-27 00:59 9.09918 86.21588 33836 ft 495 kts 294°
2026-04-27 01:00 9.12762 86.15207 33840 ft 495 kts 294°
2026-04-27 01:00 9.15589 86.08860 33842 ft 495 kts 294°
2026-04-27 01:01 9.18398 86.02552 33842 ft 494 kts 294°
2026-04-27 01:01 9.21233 85.96181 33845 ft 494 kts 294°
2026-04-27 01:02 9.24046 85.89857 33845 ft 494 kts 294°
2026-04-27 01:02 9.26913 85.83503 33845 ft 495 kts 294°
2026-04-27 01:03 9.29813 85.77217 33845 ft 495 kts 295°
2026-04-27 01:03 9.32739 85.70896 33845 ft 494 kts 295°
2026-04-27 01:04 9.35646 85.64620 33845 ft 494 kts 295°
2026-04-27 01:04 9.38569 85.58311 33845 ft 493 kts 295°
2026-04-27 01:05 9.41481 85.52024 33845 ft 493 kts 295°
2026-04-27 01:05 9.44386 85.45749 33845 ft 493 kts 295°
2026-04-27 01:06 9.47290 85.39474 33845 ft 493 kts 295°
2026-04-27 01:06 9.50199 85.33186 33846 ft 493 kts 295°
2026-04-27 01:07 9.53117 85.26884 33845 ft 492 kts 294°
2026-04-27 01:07 9.55998 85.20644 33844 ft 489 kts 294°
2026-04-27 01:08 9.58874 85.14406 33843 ft 486 kts 294°
2026-04-27 01:08 9.61735 85.08203 33845 ft 488 kts 294°
2026-04-27 01:09 9.64605 85.01990 33845 ft 489 kts 294°
2026-04-27 01:09 9.67501 84.95705 33847 ft 489 kts 294°
2026-04-27 01:10 9.70369 84.89480 33845 ft 488 kts 294°
2026-04-27 01:10 9.73222 84.83280 33843 ft 485 kts 294°
2026-04-27 01:11 9.76078 84.77072 33845 ft 484 kts 294°
2026-04-27 01:11 9.78916 84.70901 33845 ft 484 kts 294°
2026-04-27 01:12 9.81754 84.64727 33845 ft 485 kts 294°
2026-04-27 01:12 9.84610 84.58505 33845 ft 485 kts 294°
2026-04-27 01:13 9.87467 84.52282 33845 ft 486 kts 294°
2026-04-27 01:13 9.90306 84.46094 33845 ft 486 kts 294°
2026-04-27 01:14 9.93155 84.39882 33845 ft 486 kts 294°
2026-04-27 01:14 9.96009 84.33657 33845 ft 486 kts 294°
2026-04-27 01:15 9.98846 84.27462 33845 ft 485 kts 294°
2026-04-27 01:15 10.01698 84.21231 33845 ft 484 kts 294°
2026-04-27 01:16 10.04459 84.15196 33845 ft 484 kts 294°
2026-04-27 01:16 10.07289 84.09007 33845 ft 484 kts 294°
2026-04-27 01:17 10.10113 84.02826 33844 ft 482 kts 294°
2026-04-27 01:17 10.12927 83.96662 33845 ft 482 kts 294°
2026-04-27 01:18 10.15735 83.90511 33845 ft 483 kts 294°
2026-04-27 01:18 10.18556 83.84327 33879 ft 483 kts 294°
2026-04-27 01:19 10.21392 83.78105 33848 ft 484 kts 294°
2026-04-27 01:19 10.24207 83.71927 33845 ft 484 kts 294°
2026-04-27 01:20 10.27033 83.65721 33846 ft 483 kts 294°
2026-04-27 01:20 10.29850 83.59529 33844 ft 481 kts 294°
2026-04-27 01:21 10.32650 83.53372 33845 ft 481 kts 294°
2026-04-27 01:21 10.35447 83.47219 33845 ft 482 kts 294°
2026-04-27 01:22 10.38105 83.41368 33845 ft 483 kts 294°
2026-04-27 01:22 10.40989 83.35015 33845 ft 482 kts 294°
2026-04-27 01:23 10.43801 83.28816 33845 ft 481 kts 294°
2026-04-27 01:23 10.46592 83.22661 33844 ft 479 kts 294°
2026-04-27 01:24 10.49373 83.16523 33845 ft 480 kts 294°
2026-04-27 01:24 10.52180 83.10325 33845 ft 480 kts 294°
2026-04-27 01:25 10.54960 83.04181 33844 ft 481 kts 294°
2026-04-27 01:25 10.57756 82.98001 33845 ft 482 kts 293°
2026-04-27 01:26 10.60558 82.91802 33845 ft 484 kts 293°
2026-04-27 01:26 10.63366 82.85578 33845 ft 485 kts 293°
2026-04-27 01:27 10.66179 82.79307 33845 ft 485 kts 293°
2026-04-27 01:27 10.68972 82.73123 33844 ft 483 kts 293°
2026-04-27 01:28 10.71777 82.66929 33845 ft 482 kts 293°
2026-04-27 01:28 10.74589 82.60722 33846 ft 482 kts 293°
2026-04-27 01:29 10.77391 82.54533 33844 ft 480 kts 293°
2026-04-27 01:29 10.80183 82.48367 33848 ft 480 kts 293°
2026-04-27 01:30 10.82959 82.42233 33844 ft 479 kts 293°
2026-04-27 01:30 10.85278 82.37105 33844 ft 479 kts 293°
2026-04-27 01:31 10.88075 82.30917 33845 ft 480 kts 293°
2026-04-27 01:31 10.90862 82.24749 33847 ft 481 kts 293°
2026-04-27 01:32 10.93658 82.18555 33844 ft 479 kts 293°
2026-04-27 01:32 10.96433 82.12403 33836 ft 477 kts 293°
2026-04-27 01:33 10.99181 82.06307 33844 ft 475 kts 293°
2026-04-27 01:33 11.01946 82.00170 33847 ft 475 kts 293°
2026-04-27 01:34 11.04705 81.94044 33843 ft 476 kts 293°
2026-04-27 01:34 11.07452 81.87939 33845 ft 477 kts 293°
2026-04-27 01:35 11.10220 81.81782 33844 ft 478 kts 293°
2026-04-27 01:35 11.12979 81.75644 33839 ft 479 kts 293°
2026-04-27 01:36 11.15757 81.69458 33838 ft 479 kts 293°
2026-04-27 01:36 11.18517 81.63307 33839 ft 478 kts 293°
2026-04-27 01:37 11.21271 81.57168 33839 ft 477 kts 293°
2026-04-27 01:37 11.24028 81.51018 33831 ft 476 kts 292°
2026-04-27 01:38 11.26780 81.44873 33826 ft 475 kts 292°
2026-04-27 01:38 11.29509 81.38775 33825 ft 474 kts 292°
2026-04-27 01:39 11.32240 81.32670 33825 ft 475 kts 292°
2026-04-27 01:39 11.34836 81.26864 33821 ft 475 kts 292°
2026-04-27 01:40 11.37578 81.20726 33820 ft 475 kts 292°
2026-04-27 01:40 11.40324 81.14575 33820 ft 475 kts 292°
2026-04-27 01:41 11.43047 81.08473 33823 ft 475 kts 292°
2026-04-27 01:41 11.45791 81.02321 33815 ft 473 kts 292°
2026-04-27 01:42 11.48500 80.96239 33814 ft 471 kts 292°
2026-04-27 01:42 11.51208 80.90156 33815 ft 470 kts 292°
2026-04-27 01:43 11.53911 80.84081 33817 ft 470 kts 292°
2026-04-27 01:43 11.56616 80.77997 33816 ft 471 kts 292°
2026-04-27 01:44 11.59322 80.71909 33815 ft 472 kts 292°
2026-04-27 01:44 11.62023 80.65829 33816 ft 472 kts 292°
2026-04-27 01:45 11.64703 80.59790 33816 ft 472 kts 292°
2026-04-27 01:45 11.67395 80.53719 33815 ft 472 kts 292°
2026-04-27 01:46 11.70104 80.47604 33815 ft 471 kts 292°
2026-04-27 01:46 11.72812 80.41491 33815 ft 471 kts 292°
2026-04-27 01:47 11.75487 80.35451 33816 ft 471 kts 291°
2026-04-27 01:47 11.78179 80.29363 33816 ft 470 kts 291°
2026-04-27 01:48 11.80881 80.23249 33815 ft 471 kts 291°
2026-04-27 01:48 11.83576 80.17146 33816 ft 472 kts 291°
2026-04-27 01:49 11.86276 80.11017 33816 ft 473 kts 291°
2026-04-27 01:49 11.88933 80.04903 33815 ft 473 kts 291°
2026-04-27 01:50 11.91599 79.98771 33815 ft 472 kts 291°
2026-04-27 01:50 11.94260 79.92653 33815 ft 472 kts 291°
2026-04-27 01:51 11.96874 79.86641 34676 ft 451 kts 291°
2026-04-27 01:51 11.98161 79.83684 34531 ft 459 kts 291°
2026-04-27 01:51 11.99467 79.80679 34285 ft 465 kts 291°
2026-04-27 01:51 12.00789 79.77641 34037 ft 469 kts 291°
2026-04-27 01:52 12.02113 79.74600 33965 ft 466 kts 291°
2026-04-27 01:52 12.04701 79.68660 33835 ft 464 kts 291°
2026-04-27 01:53 12.07329 79.62611 33925 ft 457 kts 291°
2026-04-27 01:53 12.09953 79.56693 33840 ft 458 kts 292°
2026-04-27 01:54 12.12654 79.50751 33832 ft 464 kts 291°
2026-04-27 01:54 12.15366 79.44767 33842 ft 463 kts 292°
2026-04-27 01:55 12.18087 79.38802 33851 ft 461 kts 292°
2026-04-27 01:55 12.20780 79.32885 33851 ft 458 kts 292°
2026-04-27 01:56 12.24775 79.24100 33845 ft 454 kts 292°
2026-04-27 01:56 12.27438 79.18247 33846 ft 454 kts 292°
2026-04-27 01:57 12.30105 79.12372 33849 ft 456 kts 292°
2026-04-27 01:57 12.32766 79.06510 34019 ft 457 kts 292°
2026-04-27 01:58 12.34105 79.03556 33902 ft 465 kts 292°
2026-04-27 01:58 12.35474 79.00534 33872 ft 470 kts 292°
2026-04-27 01:58 12.38260 78.94387 33866 ft 480 kts 292°
2026-04-27 01:59 12.41096 78.88125 33868 ft 488 kts 292°
2026-04-27 01:59 12.42505 78.85015 33855 ft 475 kts 292°
2026-04-27 01:59 12.43860 78.82024 33852 ft 463 kts 292°
2026-04-27 02:00 12.46509 78.76171 33852 ft 446 kts 292°
2026-04-27 02:00 12.49098 78.70440 33850 ft 442 kts 291°
2026-04-27 02:01 12.51702 78.64667 33869 ft 451 kts 291°
2026-04-27 02:01 12.54359 78.58776 33867 ft 460 kts 292°
2026-04-27 02:02 12.57048 78.52815 33859 ft 465 kts 292°
2026-04-27 02:02 12.59763 78.46799 33844 ft 466 kts 291°
2026-04-27 02:03 12.62477 78.40768 33834 ft 464 kts 291°
2026-04-27 02:03 12.65170 78.34784 33824 ft 461 kts 291°
2026-04-27 02:04 12.67836 78.28858 33842 ft 460 kts 291°
2026-04-27 02:04 12.70514 78.22894 33872 ft 462 kts 291°
2026-04-27 02:05 12.73210 78.16888 33876 ft 465 kts 291°
2026-04-27 02:05 12.75918 78.10853 33873 ft 467 kts 291°
2026-04-27 02:06 12.78634 78.04796 33871 ft 467 kts 291°
2026-04-27 02:06 12.81323 77.98795 33878 ft 465 kts 291°
2026-04-27 02:07 12.84026 77.92758 33876 ft 463 kts 291°
2026-04-27 02:07 12.86688 77.86809 33887 ft 462 kts 291°
2026-04-27 02:08 12.89361 77.80828 33907 ft 461 kts 291°
2026-04-27 02:08 12.92036 77.74840 33979 ft 461 kts 291°
2026-04-27 02:09 12.94716 77.68842 33970 ft 464 kts 292°
2026-04-27 02:09 12.97765 77.62962 33969 ft 467 kts 295°
2026-04-27 02:10 13.00872 77.57150 33966 ft 468 kts 295°
2026-04-27 02:10 13.04004 77.51295 33958 ft 467 kts 295°
2026-04-27 02:11 13.07129 77.45456 33959 ft 466 kts 295°
2026-04-27 02:11 13.10247 77.39626 33960 ft 465 kts 295°
2026-04-27 02:12 13.13359 77.33804 33967 ft 465 kts 295°
2026-04-27 02:12 13.16458 77.28003 33911 ft 466 kts 295°
2026-04-27 02:13 13.19576 77.22162 33895 ft 467 kts 295°
2026-04-27 02:13 13.22700 77.16307 33886 ft 467 kts 295°
2026-04-27 02:14 13.25814 77.10466 33876 ft 467 kts 295°
2026-04-27 02:14 13.28912 77.04651 33852 ft 467 kts 295°
2026-04-27 02:15 13.32023 76.98809 33847 ft 466 kts 295°
2026-04-27 02:15 13.35138 76.92954 33843 ft 466 kts 295°
2026-04-27 02:16 13.38244 76.87111 33837 ft 467 kts 295°
2026-04-27 02:16 13.41352 76.81260 33825 ft 467 kts 295°
2026-04-27 02:17 13.43943 76.76381 33823 ft 467 kts 295°
2026-04-27 02:17 13.47052 76.70522 33823 ft 466 kts 295°
2026-04-27 02:18 13.50659 76.63718 33823 ft 466 kts 295°
2026-04-27 02:18 13.53241 76.58844 33834 ft 466 kts 295°
2026-04-27 02:19 13.56338 76.52995 33859 ft 466 kts 295°
2026-04-27 02:19 13.59439 76.47133 33855 ft 467 kts 295°
2026-04-27 02:20 13.62548 76.41253 33859 ft 467 kts 295°
2026-04-27 02:20 13.65649 76.35383 33879 ft 467 kts 295°
2026-04-27 02:21 13.68745 76.29521 33887 ft 466 kts 295°
2026-04-27 02:21 13.71840 76.23654 33888 ft 466 kts 295°
2026-04-27 02:22 13.74911 76.17827 33903 ft 466 kts 295°
2026-04-27 02:22 13.78000 76.11965 33923 ft 467 kts 295°
2026-04-27 02:23 13.81095 76.06085 33925 ft 468 kts 295°
2026-04-27 02:23 13.84207 76.00168 33918 ft 468 kts 295°
2026-04-27 02:24 13.87300 75.94286 33916 ft 467 kts 295°
2026-04-27 02:24 13.90368 75.88445 33932 ft 466 kts 295°
2026-04-27 02:25 13.93454 75.82566 33935 ft 466 kts 295°
2026-04-27 02:25 13.96544 75.76673 33935 ft 468 kts 295°
2026-04-27 02:26 13.99643 75.70760 33934 ft 469 kts 295°
2026-04-27 02:26 14.02724 75.64878 33942 ft 468 kts 295°
2026-04-27 02:27 14.05815 75.58974 33945 ft 467 kts 295°
2026-04-27 02:27 14.08895 75.53077 33952 ft 466 kts 294°
2026-04-27 02:28 14.11954 75.47181 33957 ft 466 kts 294°
2026-04-27 02:28 14.14993 75.41327 33978 ft 466 kts 294°
2026-04-27 02:29 14.18056 75.35425 33976 ft 466 kts 294°
2026-04-27 02:29 14.21102 75.29559 33975 ft 466 kts 294°
2026-04-27 02:30 14.24181 75.23628 33974 ft 466 kts 294°
2026-04-27 02:30 14.27226 75.17765 33985 ft 468 kts 294°
2026-04-27 02:31 14.30308 75.11826 33986 ft 470 kts 294°
2026-04-27 02:31 14.33396 75.05870 33988 ft 471 kts 294°
2026-04-27 02:32 14.36475 74.99930 33986 ft 469 kts 294°
2026-04-27 02:32 14.39545 74.94007 33983 ft 467 kts 294°
2026-04-27 02:33 14.42589 74.88131 33981 ft 466 kts 294°
2026-04-27 02:33 14.45641 74.82230 33981 ft 467 kts 294°
2026-04-27 02:34 14.48428 74.76842 33979 ft 469 kts 294°
2026-04-27 02:34 14.51552 74.70903 33969 ft 471 kts 294°
2026-04-27 02:35 14.54686 74.64963 33968 ft 470 kts 294°
2026-04-27 02:35 14.57808 74.59050 33968 ft 468 kts 294°
2026-04-27 02:36 14.60907 74.53186 33954 ft 468 kts 294°
2026-04-27 02:36 14.63995 74.47328 33914 ft 460 kts 295°
2026-04-27 02:37 14.67029 74.41586 33909 ft 451 kts 295°
2026-04-27 02:37 14.70040 74.35894 33915 ft 455 kts 294°
2026-04-27 02:38 14.73100 74.30085 33918 ft 465 kts 294°
2026-04-27 02:38 14.76188 74.24218 33897 ft 467 kts 294°
2026-04-27 02:39 14.79288 74.18332 33884 ft 459 kts 295°
2026-04-27 02:39 14.82297 74.12624 33883 ft 451 kts 295°
2026-04-27 02:40 14.85276 74.06966 33884 ft 446 kts 294°
2026-04-27 02:40 14.88241 74.01324 33882 ft 447 kts 294°
2026-04-27 02:41 14.91218 73.95654 33882 ft 450 kts 294°
2026-04-27 02:41 14.94188 73.89967 33884 ft 454 kts 294°
2026-04-27 02:42 14.97211 73.84183 33885 ft 457 kts 294°
2026-04-27 02:42 15.00231 73.78404 33900 ft 457 kts 294°
2026-04-27 02:43 15.03246 73.72593 33903 ft 457 kts 294°
2026-04-27 02:43 15.06257 73.66807 33897 ft 455 kts 294°
2026-04-27 02:44 15.09247 73.61073 33895 ft 451 kts 294°
2026-04-27 02:44 15.12203 73.55407 33904 ft 449 kts 294°
2026-04-27 02:45 15.15175 73.49699 33909 ft 451 kts 294°
2026-04-27 02:45 15.18155 73.43974 33908 ft 453 kts 294°
2026-04-27 02:46 15.21155 73.38208 33904 ft 454 kts 294°
2026-04-27 02:46 15.24142 73.32465 33903 ft 456 kts 294°
2026-04-27 02:47 15.27145 73.26684 33897 ft 455 kts 294°
2026-04-27 02:47 15.30138 73.20916 33897 ft 453 kts 294°
2026-04-27 02:48 15.33112 73.15184 33894 ft 449 kts 294°
2026-04-27 02:48 15.36047 73.09533 33889 ft 448 kts 293°
2026-04-27 02:49 15.39007 73.03803 33896 ft 452 kts 294°
2026-04-27 02:49 15.41981 72.98053 33892 ft 452 kts 294°
2026-04-27 02:50 15.44953 72.92309 33891 ft 451 kts 294°
2026-04-27 02:50 15.47921 72.86584 33871 ft 452 kts 292°
2026-04-27 02:51 15.50914 72.80774 33867 ft 462 kts 292°
2026-04-27 02:51 15.53972 72.74836 33866 ft 470 kts 292°
2026-04-27 02:52 15.57036 72.68881 33869 ft 467 kts 293°
2026-04-27 02:52 15.60070 72.63009 33857 ft 458 kts 292°
2026-04-27 02:53 15.63071 72.57174 33857 ft 459 kts 292°
2026-04-27 02:53 15.66087 72.51302 33853 ft 463 kts 292°
2026-04-27 02:54 15.69111 72.45413 33850 ft 467 kts 292°
2026-04-27 02:54 15.72182 72.39433 33834 ft 469 kts 292°
2026-04-27 02:55 15.75254 72.33441 33830 ft 468 kts 292°
2026-04-27 02:55 15.78290 72.27518 33829 ft 466 kts 292°
2026-04-27 02:56 15.81319 72.21601 33831 ft 463 kts 292°
2026-04-27 02:56 15.84341 72.15694 33820 ft 462 kts 291°
2026-04-27 02:57 15.87355 72.09795 33816 ft 463 kts 291°
2026-04-27 02:57 15.90231 72.04161 33817 ft 463 kts 291°
2026-04-27 02:58 15.93252 71.98241 33818 ft 464 kts 291°
2026-04-27 02:58 15.96280 71.92302 33816 ft 465 kts 291°
2026-04-27 02:59 15.99302 71.86369 33817 ft 464 kts 291°
2026-04-27 02:59 16.02302 71.80475 33815 ft 463 kts 291°
2026-04-27 03:00 16.05314 71.74554 33815 ft 463 kts 291°
2026-04-27 03:00 16.08325 71.68629 33815 ft 463 kts 291°
2026-04-27 03:01 16.11359 71.62705 33816 ft 464 kts 292°
2026-04-27 03:01 16.14412 71.56848 33816 ft 464 kts 292°
2026-04-27 03:02 16.17488 71.50952 33815 ft 464 kts 292°
2026-04-27 03:02 16.20570 71.45049 33815 ft 464 kts 292°
2026-04-27 03:03 16.25205 71.36165 33816 ft 467 kts 292°
2026-04-27 03:04 16.28305 71.30220 33816 ft 466 kts 292°
2026-04-27 03:04 16.31392 71.24301 33814 ft 464 kts 292°
2026-04-27 03:05 16.34468 71.18402 33816 ft 463 kts 292°
2026-04-27 03:05 16.37523 71.12536 33816 ft 464 kts 292°
2026-04-27 03:06 16.40603 71.06617 33816 ft 465 kts 291°
2026-04-27 03:06 16.43621 71.00815 33817 ft 466 kts 291°
2026-04-27 03:07 16.46186 70.95879 33814 ft 466 kts 291°
2026-04-27 03:07 16.49269 70.89943 33815 ft 465 kts 291°
2026-04-27 03:08 16.52348 70.84012 33816 ft 465 kts 291°
2026-04-27 03:08 16.55933 70.77129 33815 ft 464 kts 291°
2026-04-27 03:09 16.58519 70.72173 33818 ft 464 kts 291°
2026-04-27 03:09 16.61608 70.66253 33818 ft 465 kts 291°
2026-04-27 03:10 16.64687 70.60357 33816 ft 466 kts 292°
2026-04-27 03:10 16.67776 70.54442 33815 ft 465 kts 291°
2026-04-27 03:11 16.70873 70.48514 33836 ft 464 kts 291°
2026-04-27 03:11 16.73085 70.44277 33841 ft 465 kts 291°
2026-04-27 03:12 16.75537 70.39576 33858 ft 466 kts 291°
2026-04-27 03:12 16.78641 70.33623 33874 ft 467 kts 291°
2026-04-27 03:13 16.81735 70.27689 33873 ft 468 kts 291°
2026-04-27 03:13 16.84846 70.21718 33874 ft 467 kts 291°
2026-04-27 03:14 16.87948 70.15758 33875 ft 466 kts 291°
2026-04-27 03:14 16.91042 70.09815 33874 ft 465 kts 291°
2026-04-27 03:15 16.94108 70.03917 33874 ft 463 kts 291°
2026-04-27 03:15 16.97173 69.98016 33874 ft 461 kts 291°
2026-04-27 03:16 17.00227 69.92130 33874 ft 461 kts 291°
2026-04-27 03:16 17.03295 69.86208 33875 ft 464 kts 291°
2026-04-27 03:17 17.06371 69.80262 33876 ft 465 kts 291°
2026-04-27 03:17 17.09431 69.74351 33874 ft 463 kts 291°
2026-04-27 03:18 17.12485 69.68450 33874 ft 461 kts 291°
2026-04-27 03:18 17.15534 69.62551 33875 ft 460 kts 291°
2026-04-27 03:19 17.18572 69.56657 33874 ft 460 kts 291°
2026-04-27 03:19 17.21556 69.50731 33875 ft 460 kts 291°
2026-04-27 03:20 17.24573 69.44843 33875 ft 463 kts 292°
2026-04-27 03:20 17.27642 69.38896 33875 ft 465 kts 292°
2026-04-27 03:21 17.30732 69.32918 33875 ft 467 kts 292°
2026-04-27 03:21 17.33828 69.26932 33875 ft 468 kts 292°
2026-04-27 03:22 17.36903 69.20985 33874 ft 467 kts 292°
2026-04-27 03:22 17.39992 69.15007 33874 ft 465 kts 292°
2026-04-27 03:23 17.43060 69.09057 33874 ft 464 kts 292°
2026-04-27 03:23 17.46128 69.03108 33875 ft 464 kts 292°
2026-04-27 03:24 17.49179 68.97186 33875 ft 465 kts 292°
2026-04-27 03:24 17.52272 68.91176 33875 ft 467 kts 292°
2026-04-27 03:25 17.55356 68.85171 33875 ft 468 kts 292°
2026-04-27 03:25 17.58422 68.79203 33870 ft 469 kts 293°
2026-04-27 03:26 17.61516 68.73175 33865 ft 469 kts 293°
2026-04-27 03:26 17.64601 68.67160 33874 ft 467 kts 293°
2026-04-27 03:27 17.67693 68.61120 33874 ft 467 kts 293°
2026-04-27 03:27 17.70768 68.55112 33875 ft 467 kts 293°
2026-04-27 03:28 17.73841 68.49102 33875 ft 468 kts 293°
2026-04-27 03:28 17.76919 68.43065 33876 ft 468 kts 294°
2026-04-27 03:29 17.79985 68.37048 33874 ft 466 kts 294°
2026-04-27 03:29 17.83041 68.31067 33871 ft 464 kts 294°
2026-04-27 03:30 17.85947 68.25367 33875 ft 465 kts 294°
2026-04-27 03:30 17.89007 68.19344 33878 ft 468 kts 294°
2026-04-27 03:31 17.92078 68.13297 33874 ft 469 kts 295°
2026-04-27 03:31 17.95128 68.07287 33875 ft 465 kts 295°
2026-04-27 03:32 17.98147 68.01341 33871 ft 455 kts 296°
2026-04-27 03:32 18.01100 67.95517 33878 ft 450 kts 296°
2026-04-27 03:33 18.04030 67.89725 33873 ft 446 kts 297°
2026-04-27 03:33 18.06955 67.83962 33874 ft 448 kts 296°
2026-04-27 03:34 18.09920 67.78198 33876 ft 454 kts 296°
2026-04-27 03:34 18.12960 67.72340 33871 ft 458 kts 298°
2026-04-27 03:35 18.16054 67.66446 33876 ft 463 kts 298°
2026-04-27 03:35 18.19175 67.60491 33875 ft 465 kts 297°
2026-04-27 03:36 18.22232 67.54615 34674 ft 443 kts 298°
2026-04-27 03:36 18.25257 67.48849 34433 ft 458 kts 298°
2026-04-27 03:36 18.26807 67.45882 34188 ft 466 kts 298°
2026-04-27 03:37 18.28378 67.42878 33971 ft 470 kts 299°
2026-04-27 03:37 18.31509 67.36879 33880 ft 470 kts 299°
2026-04-27 03:38 18.34657 67.30860 33872 ft 467 kts 299°
2026-04-27 03:38 18.37769 67.24886 33870 ft 466 kts 299°
2026-04-27 03:39 18.40890 67.18887 33873 ft 468 kts 299°
2026-04-27 03:39 18.44028 67.12859 33873 ft 471 kts 299°
2026-04-27 03:40 18.47179 67.06790 33873 ft 473 kts 299°
2026-04-27 03:40 18.50341 67.00697 33871 ft 473 kts 300°
2026-04-27 03:41 18.53470 66.94665 33870 ft 471 kts 300°
2026-04-27 03:41 18.56605 66.88614 33871 ft 469 kts 299°
2026-04-27 03:42 18.59626 66.82776 33871 ft 468 kts 299°
2026-04-27 03:42 18.62731 66.76766 33870 ft 468 kts 300°
2026-04-27 03:43 18.65849 66.70729 33867 ft 468 kts 300°
2026-04-27 03:43 18.68944 66.64730 33866 ft 468 kts 300°
2026-04-27 03:44 18.72053 66.58697 33865 ft 468 kts 300°
2026-04-27 03:44 18.75158 66.52665 33862 ft 468 kts 300°
2026-04-27 03:45 18.78257 66.46641 33857 ft 467 kts 300°
2026-04-27 03:45 18.81353 66.40616 33858 ft 466 kts 300°
2026-04-27 03:46 18.84442 66.34597 33854 ft 465 kts 300°
2026-04-27 03:46 18.87520 66.28588 33848 ft 465 kts 300°
2026-04-27 03:47 18.90608 66.22566 33849 ft 467 kts 300°
2026-04-27 03:47 18.93683 66.16562 33849 ft 467 kts 300°
2026-04-27 03:48 18.96765 66.10529 33848 ft 465 kts 300°
2026-04-27 03:48 18.99834 66.04514 33843 ft 466 kts 300°
2026-04-27 03:49 19.02929 65.98452 33846 ft 472 kts 300°
2026-04-27 03:49 19.06061 65.92309 33846 ft 476 kts 300°
2026-04-27 03:50 19.09205 65.86134 33845 ft 475 kts 300°
2026-04-27 03:50 19.12314 65.80020 33842 ft 474 kts 300°
2026-04-27 03:51 19.15440 65.73869 33842 ft 473 kts 300°
2026-04-27 03:51 19.18033 65.68761 33840 ft 472 kts 300°
2026-04-27 03:52 19.21139 65.62636 33839 ft 472 kts 300°
2026-04-27 03:52 19.24214 65.56565 33833 ft 471 kts 300°
2026-04-27 03:53 19.27306 65.50456 33834 ft 470 kts 300°
2026-04-27 03:53 19.30391 65.44354 33834 ft 470 kts 300°
2026-04-27 03:54 19.33332 65.38531 33834 ft 470 kts 300°
2026-04-27 03:54 19.36419 65.32410 33831 ft 470 kts 300°
2026-04-27 03:55 19.39501 65.26298 33831 ft 470 kts 300°
2026-04-27 03:55 19.42574 65.20194 33829 ft 469 kts 300°
2026-04-27 03:56 19.45623 65.14132 33830 ft 469 kts 300°
2026-04-27 03:56 19.48696 65.08015 33831 ft 470 kts 300°
2026-04-27 03:57 19.51761 65.01909 33830 ft 470 kts 300°
2026-04-27 03:57 19.54847 64.95780 33834 ft 470 kts 301°
2026-04-27 03:58 19.57945 64.89722 33836 ft 470 kts 301°
2026-04-27 03:58 19.61081 64.83617 33838 ft 471 kts 301°
2026-04-27 03:59 19.64218 64.77513 33836 ft 471 kts 301°
2026-04-27 03:59 19.67357 64.71405 33835 ft 470 kts 301°
2026-04-27 04:00 19.70466 64.65348 33839 ft 469 kts 301°
2026-04-27 04:00 19.73592 64.59256 33841 ft 469 kts 301°
2026-04-27 04:01 19.76710 64.53173 33840 ft 469 kts 301°
2026-04-27 04:01 19.79833 64.47072 33840 ft 470 kts 301°
2026-04-27 04:02 19.82960 64.40958 33841 ft 471 kts 301°
2026-04-27 04:02 19.86090 64.34831 33842 ft 471 kts 301°
2026-04-27 04:03 19.89198 64.28740 33842 ft 472 kts 301°
2026-04-27 04:03 19.92321 64.22613 33843 ft 472 kts 301°
2026-04-27 04:04 19.95447 64.16472 33844 ft 471 kts 301°
2026-04-27 04:04 19.98550 64.10371 33844 ft 471 kts 301°
2026-04-27 04:05 20.01678 64.04214 33844 ft 471 kts 301°
2026-04-27 04:05 20.04781 63.98099 33845 ft 472 kts 301°
2026-04-27 04:06 20.07894 63.91958 33845 ft 470 kts 301°
2026-04-27 04:06 20.10993 63.85838 33844 ft 469 kts 301°
2026-04-27 04:07 20.15623 63.76682 33845 ft 469 kts 301°
2026-04-27 04:07 20.18715 63.70560 33845 ft 470 kts 301°
2026-04-27 04:08 20.21793 63.64457 33845 ft 470 kts 300°
2026-04-27 04:08 20.24885 63.58322 33845 ft 469 kts 300°
2026-04-27 04:09 20.27961 63.52209 33844 ft 467 kts 300°
2026-04-27 04:09 20.31030 63.46106 33845 ft 467 kts 300°
2026-04-27 04:10 20.34094 63.40005 33845 ft 467 kts 300°
2026-04-27 04:10 20.37162 63.33890 33845 ft 468 kts 300°
2026-04-27 04:11 20.40230 63.27767 33845 ft 468 kts 300°
2026-04-27 04:11 20.43295 63.21644 33846 ft 468 kts 300°
2026-04-27 04:12 20.46352 63.15529 33844 ft 466 kts 300°
2026-04-27 04:12 20.49398 63.09430 33844 ft 466 kts 300°
2026-04-27 04:13 20.52446 63.03322 33846 ft 467 kts 300°
2026-04-27 04:13 20.55496 62.97202 33845 ft 468 kts 300°
2026-04-27 04:14 20.58529 62.91110 33845 ft 467 kts 300°
2026-04-27 04:14 20.61578 62.84977 33844 ft 466 kts 300°
2026-04-27 04:15 20.64613 62.78867 33845 ft 464 kts 300°
2026-04-27 04:15 20.67642 62.72760 33845 ft 464 kts 300°
2026-04-27 04:16 20.70641 62.66709 33845 ft 464 kts 300°
2026-04-27 04:16 20.73666 62.60598 33845 ft 465 kts 300°
2026-04-27 04:17 20.76698 62.54466 33846 ft 466 kts 300°
2026-04-27 04:17 20.79725 62.48339 33845 ft 465 kts 300°
2026-04-27 04:18 20.82742 62.42224 33845 ft 465 kts 300°
2026-04-27 04:18 20.85738 62.36145 33845 ft 464 kts 300°
2026-04-27 04:19 20.88748 62.30031 33845 ft 464 kts 300°
2026-04-27 04:19 20.91755 62.23916 33845 ft 464 kts 300°
2026-04-27 04:20 20.94757 62.17803 33845 ft 464 kts 300°
2026-04-27 04:20 20.97755 62.11693 33845 ft 463 kts 300°
2026-04-27 04:21 21.00748 62.05585 33846 ft 463 kts 300°
2026-04-27 04:21 21.03733 61.99486 33846 ft 462 kts 300°
2026-04-27 04:22 21.06715 61.93387 33845 ft 463 kts 300°
2026-04-27 04:22 21.09679 61.87318 33846 ft 463 kts 300°
2026-04-27 04:23 21.12663 61.81201 33853 ft 463 kts 300°
2026-04-27 04:23 21.15645 61.75081 33853 ft 463 kts 300°
2026-04-27 04:24 21.18605 61.68938 33851 ft 464 kts 296°
2026-04-27 04:24 21.20482 61.62355 33852 ft 468 kts 281°
2026-04-27 04:25 21.20906 61.55363 33859 ft 470 kts 274°
2026-04-27 04:25 21.21146 61.48361 33860 ft 471 kts 274°
2026-04-27 04:26 21.21375 61.41343 33860 ft 471 kts 274°
2026-04-27 04:26 21.21596 61.34322 33866 ft 471 kts 274°
2026-04-27 04:27 21.21807 61.27309 33868 ft 470 kts 274°
2026-04-27 04:27 21.22009 61.20411 33868 ft 469 kts 274°
2026-04-27 04:28 21.22209 61.13415 33871 ft 469 kts 274°
2026-04-27 04:28 21.22403 61.06438 33872 ft 468 kts 274°
2026-04-27 04:29 21.22591 60.99497 33873 ft 468 kts 274°
2026-04-27 04:29 21.22777 60.92518 33874 ft 467 kts 274°
2026-04-27 04:30 21.22958 60.85549 33874 ft 467 kts 274°
2026-04-27 04:30 21.23136 60.78596 33874 ft 466 kts 274°
2026-04-27 04:31 21.23309 60.71687 33874 ft 467 kts 273°
2026-04-27 04:31 21.23481 60.64710 33875 ft 467 kts 273°
2026-04-27 04:32 21.23649 60.57754 33874 ft 466 kts 273°
2026-04-27 04:32 21.23813 60.50811 33874 ft 465 kts 273°
2026-04-27 04:33 21.23974 60.43877 33874 ft 465 kts 273°
2026-04-27 04:33 21.24132 60.36942 33874 ft 465 kts 273°
2026-04-27 04:34 21.24287 60.30040 33875 ft 466 kts 273°
2026-04-27 04:34 21.24440 60.23087 33874 ft 466 kts 273°
2026-04-27 04:35 21.24587 60.16151 33875 ft 466 kts 273°
2026-04-27 04:35 21.24685 60.09204 33875 ft 466 kts 272°
2026-04-27 04:36 21.24787 60.02262 33874 ft 465 kts 272°
2026-04-27 04:36 21.24894 59.95333 33873 ft 465 kts 273°
2026-04-27 04:37 21.24988 59.89556 33873 ft 465 kts 273°
2026-04-27 04:37 21.25124 59.81506 33873 ft 463 kts 272°
2026-04-27 04:38 21.25220 59.75738 33873 ft 461 kts 272°
2026-04-27 04:38 21.25352 59.67769 33875 ft 459 kts 273°
2026-04-27 04:39 21.25450 59.62070 33880 ft 459 kts 272°
2026-04-27 04:39 21.25565 59.55235 33881 ft 457 kts 272°
2026-04-27 04:40 21.25660 59.48418 33871 ft 456 kts 272°
2026-04-27 04:40 21.25752 59.41631 33866 ft 453 kts 272°
2026-04-27 04:41 21.25846 59.34946 33881 ft 449 kts 272°
2026-04-27 04:41 21.25938 59.28261 33879 ft 448 kts 272°
2026-04-27 04:42 21.26021 59.21512 33870 ft 458 kts 274°
2026-04-27 04:42 21.26123 59.14603 33871 ft 468 kts 274°
2026-04-27 04:43 21.26223 59.07591 33870 ft 471 kts 274°
2026-04-27 04:43 21.26320 59.00577 33862 ft 469 kts 274°
2026-04-27 04:44 21.26415 58.93618 33859 ft 465 kts 274°
2026-04-27 04:44 21.26506 58.86754 33858 ft 461 kts 274°
2026-04-27 04:45 21.26604 58.79892 33865 ft 459 kts 276°
2026-04-27 04:45 21.27883 58.73264 33861 ft 454 kts 289°
2026-04-27 04:46 21.29730 58.66777 33868 ft 454 kts 290°
2026-04-27 04:46 21.31595 58.60274 33868 ft 456 kts 290°
2026-04-27 04:47 21.33465 58.53781 33853 ft 455 kts 290°
2026-04-27 04:47 21.35328 58.47338 33852 ft 454 kts 290°
2026-04-27 04:48 21.37200 58.40873 33864 ft 453 kts 290°
2026-04-27 04:48 21.39077 58.34403 33866 ft 455 kts 290°
2026-04-27 04:49 21.40960 58.27917 33856 ft 454 kts 290°
2026-04-27 04:49 21.42834 58.21455 33863 ft 452 kts 291°
2026-04-27 04:50 21.44692 58.15051 33869 ft 452 kts 290°
2026-04-27 04:50 21.46565 58.08604 33833 ft 452 kts 290°
2026-04-27 04:51 21.48430 58.02166 33828 ft 450 kts 290°
2026-04-27 04:51 21.50283 57.95756 33839 ft 448 kts 290°
2026-04-27 04:52 21.52131 57.89359 33826 ft 449 kts 290°
2026-04-27 04:52 21.53984 57.82943 33825 ft 449 kts 290°
2026-04-27 04:53 21.55833 57.76531 33827 ft 450 kts 290°
2026-04-27 04:53 21.57669 57.70152 33836 ft 449 kts 290°
2026-04-27 04:54 21.59476 57.63720 33834 ft 450 kts 289°
2026-04-27 04:54 21.61245 57.57291 33818 ft 448 kts 289°
2026-04-27 04:55 21.63010 57.50882 33814 ft 445 kts 290°
2026-04-27 04:55 21.64761 57.44540 33813 ft 444 kts 290°
2026-04-27 04:56 21.66518 57.38184 33809 ft 443 kts 290°
2026-04-27 04:56 21.68280 57.31818 33807 ft 443 kts 290°
2026-04-27 04:57 21.70039 57.25461 33811 ft 443 kts 290°
2026-04-27 04:57 21.71798 57.19106 33811 ft 444 kts 290°
2026-04-27 04:58 21.73538 57.12760 33808 ft 445 kts 290°
2026-04-27 04:58 21.75287 57.06364 33806 ft 444 kts 290°
2026-04-27 04:59 21.77031 56.99993 33814 ft 443 kts 290°
2026-04-27 04:59 21.78773 56.93639 33814 ft 443 kts 290°
2026-04-27 05:00 21.80513 56.87290 33806 ft 442 kts 289°
2026-04-27 05:00 21.82234 56.81000 33805 ft 440 kts 289°
2026-04-27 05:01 21.83911 56.74863 33811 ft 438 kts 289°
2026-04-27 05:01 21.85620 56.68569 33829 ft 438 kts 289°
2026-04-27 05:02 21.87327 56.62266 33836 ft 440 kts 290°
2026-04-27 05:03 21.89907 56.52753 33832 ft 441 kts 289°
2026-04-27 05:03 21.91629 56.46403 33845 ft 441 kts 289°
2026-04-27 05:04 21.93343 56.40072 33865 ft 439 kts 290°
2026-04-27 05:04 21.95035 56.33805 33869 ft 438 kts 289°
2026-04-27 05:05 21.96723 56.27503 33871 ft 438 kts 289°
2026-04-27 05:05 21.98375 56.21340 33899 ft 438 kts 289°
2026-04-27 05:06 22.00064 56.15037 33901 ft 437 kts 289°
2026-04-27 05:06 22.01749 56.08748 33900 ft 436 kts 290°
2026-04-27 05:07 22.03419 56.02500 33901 ft 437 kts 290°
2026-04-27 05:07 22.05106 55.96204 33901 ft 438 kts 290°
2026-04-27 05:08 22.06800 55.89882 33901 ft 438 kts 289°
2026-04-27 05:08 22.08491 55.83565 33903 ft 437 kts 289°
2026-04-27 05:09 22.10174 55.77268 33901 ft 436 kts 289°
2026-04-27 05:09 22.11850 55.70989 33902 ft 435 kts 289°
2026-04-27 05:10 22.13518 55.64738 33901 ft 436 kts 290°
2026-04-27 05:10 22.15194 55.58444 33906 ft 437 kts 290°
2026-04-27 05:11 22.16269 55.51960 33906 ft 441 kts 281°
2026-04-27 05:11 22.16952 55.45422 33903 ft 437 kts 280°
2026-04-27 05:12 22.17603 55.38917 33903 ft 435 kts 280°
2026-04-27 05:12 22.18239 55.32466 33905 ft 435 kts 280°
2026-04-27 05:13 22.18877 55.25962 33905 ft 436 kts 280°
2026-04-27 05:13 22.19511 55.19450 33902 ft 437 kts 280°
2026-04-27 05:14 22.20141 55.12923 33904 ft 437 kts 280°
2026-04-27 05:14 22.20769 55.06380 33905 ft 438 kts 280°
2026-04-27 05:15 22.21393 54.99848 33903 ft 437 kts 280°
2026-04-27 05:15 22.22012 54.93323 33904 ft 437 kts 280°
2026-04-27 05:16 22.22628 54.86795 33904 ft 436 kts 280°
2026-04-27 05:16 22.23241 54.80277 33900 ft 436 kts 280°
2026-04-27 05:17 22.23847 54.73793 33904 ft 436 kts 280°
2026-04-27 05:17 22.24454 54.67277 33904 ft 437 kts 280°
2026-04-27 05:18 22.25059 54.60755 33905 ft 437 kts 280°
2026-04-27 05:18 22.25662 54.54231 33904 ft 436 kts 280°
2026-04-27 05:19 22.26257 54.47727 33902 ft 435 kts 280°
2026-04-27 05:19 22.26853 54.41207 33904 ft 435 kts 280°
2026-04-27 05:20 22.27445 54.34734 33903 ft 436 kts 279°
2026-04-27 05:20 22.28032 54.28236 33904 ft 435 kts 279°
2026-04-27 05:21 22.28618 54.21729 33905 ft 435 kts 280°
2026-04-27 05:21 22.29203 54.15231 33906 ft 436 kts 279°
2026-04-27 05:22 22.29784 54.08739 33906 ft 435 kts 279°
2026-04-27 05:22 22.30361 54.02230 33903 ft 434 kts 279°
2026-04-27 05:23 22.30935 53.95751 33903 ft 432 kts 279°
2026-04-27 05:23 22.31503 53.89286 33899 ft 432 kts 279°
2026-04-27 05:24 22.32072 53.82813 33908 ft 434 kts 279°
2026-04-27 05:24 22.32544 53.77411 33905 ft 434 kts 279°
2026-04-27 05:25 22.33110 53.70902 33907 ft 435 kts 279°
2026-04-27 05:25 22.33676 53.64385 33899 ft 436 kts 279°
2026-04-27 05:26 22.34234 53.57889 33897 ft 433 kts 279°
2026-04-27 05:26 22.34786 53.51429 33905 ft 431 kts 279°
2026-04-27 05:27 22.35332 53.45028 33906 ft 431 kts 279°
2026-04-27 05:27 22.35884 53.38553 33899 ft 433 kts 279°
2026-04-27 05:28 22.36432 53.32067 33896 ft 433 kts 279°
2026-04-27 05:28 22.36976 53.25577 33902 ft 433 kts 279°
2026-04-27 05:29 22.37521 53.19097 33907 ft 433 kts 279°
2026-04-27 05:29 22.38057 53.12655 33897 ft 431 kts 279°
2026-04-27 05:30 22.38590 53.06204 33899 ft 430 kts 279°
2026-04-27 05:30 22.39121 52.99768 33903 ft 430 kts 279°
2026-04-27 05:31 22.39650 52.93354 33901 ft 432 kts 279°
2026-04-27 05:31 22.40177 52.86894 33902 ft 431 kts 279°
2026-04-27 05:32 22.40699 52.80440 33899 ft 431 kts 279°
2026-04-27 05:32 22.41223 52.73980 33906 ft 432 kts 279°
2026-04-27 05:33 22.41745 52.67507 33902 ft 431 kts 279°
2026-04-27 05:33 22.42258 52.61066 33898 ft 429 kts 279°
2026-04-27 05:34 22.42767 52.54677 33902 ft 430 kts 279°
2026-04-27 05:34 22.43270 52.48397 33914 ft 431 kts 278°
2026-04-27 05:35 22.43770 52.42010 33921 ft 428 kts 278°
2026-04-27 05:35 22.44266 52.35619 33921 ft 426 kts 279°
2026-04-27 05:36 22.44770 52.29213 33924 ft 428 kts 279°
2026-04-27 05:36 22.45274 52.22795 33926 ft 428 kts 278°
2026-04-27 05:37 22.45762 52.16409 33923 ft 424 kts 278°
2026-04-27 05:37 22.46243 52.10115 33926 ft 422 kts 278°
2026-04-27 05:38 22.46727 52.03797 33930 ft 421 kts 278°
2026-04-27 05:38 22.47208 51.97476 33929 ft 422 kts 278°
2026-04-27 05:39 22.47686 51.91148 33926 ft 423 kts 278°
2026-04-27 05:39 22.48165 51.84797 33930 ft 424 kts 278°
2026-04-27 05:40 22.48643 51.78426 33934 ft 425 kts 278°
2026-04-27 05:40 22.49114 51.72097 33933 ft 423 kts 278°
2026-04-27 05:41 22.49582 51.65748 33932 ft 422 kts 278°
2026-04-27 05:41 22.50052 51.59403 33934 ft 423 kts 278°
2026-04-27 05:42 22.50517 51.53065 33934 ft 422 kts 278°
2026-04-27 05:42 22.50975 51.46759 33936 ft 419 kts 278°
2026-04-27 05:43 22.51430 51.40468 33930 ft 417 kts 277°
2026-04-27 05:43 22.51877 51.34259 33933 ft 417 kts 277°
2026-04-27 05:44 22.52327 51.27997 33934 ft 417 kts 277°
2026-04-27 05:44 22.52773 51.21733 33934 ft 418 kts 277°
2026-04-27 05:45 22.53218 51.15466 33931 ft 417 kts 277°
2026-04-27 05:45 22.53658 51.09206 33932 ft 417 kts 277°
2026-04-27 05:46 22.54096 51.02980 33932 ft 416 kts 277°
2026-04-27 05:46 22.54529 50.96744 33928 ft 415 kts 277°
2026-04-27 05:47 22.54962 50.90508 33929 ft 416 kts 277°
2026-04-27 05:47 22.55393 50.84258 33931 ft 417 kts 277°
2026-04-27 05:48 22.55824 50.77983 33929 ft 418 kts 277°
2026-04-27 05:48 22.56251 50.71715 33926 ft 418 kts 277°
2026-04-27 05:49 22.56673 50.65486 33927 ft 418 kts 277°
2026-04-27 05:49 22.57098 50.59213 33921 ft 418 kts 277°
2026-04-27 05:50 22.57516 50.52946 33920 ft 416 kts 277°
2026-04-27 05:50 22.57931 50.46704 33918 ft 415 kts 277°
2026-04-27 05:51 22.58344 50.40466 33919 ft 417 kts 277°
2026-04-27 05:51 22.58758 50.34234 33912 ft 418 kts 277°
2026-04-27 05:52 22.59166 50.27962 33911 ft 417 kts 277°
2026-04-27 05:52 22.59573 50.21702 33911 ft 417 kts 277°
2026-04-27 05:53 22.59977 50.15450 33912 ft 417 kts 277°
2026-04-27 05:53 22.60380 50.09184 33904 ft 417 kts 277°
2026-04-27 05:54 22.60779 50.02923 33907 ft 416 kts 276°
2026-04-27 05:54 22.61177 49.96666 33907 ft 417 kts 276°
2026-04-27 05:55 22.61574 49.90403 33906 ft 417 kts 276°
2026-04-27 05:55 22.61962 49.84174 33905 ft 416 kts 276°
2026-04-27 05:56 22.62349 49.77936 33904 ft 415 kts 277°
2026-04-27 05:56 22.62707 49.72172 33906 ft 415 kts 276°
2026-04-27 05:57 22.63095 49.65923 33907 ft 417 kts 276°
2026-04-27 05:57 22.63475 49.59672 33903 ft 416 kts 276°
2026-04-27 05:58 22.63851 49.53434 33904 ft 414 kts 276°
2026-04-27 05:58 22.64229 49.47212 33905 ft 415 kts 276°
2026-04-27 05:59 22.64602 49.41013 33904 ft 415 kts 276°
2026-04-27 05:59 22.64974 49.34750 33904 ft 414 kts 276°
2026-04-27 06:00 22.65521 49.25482 33905 ft 413 kts 276°
2026-04-27 06:00 22.65886 49.19265 33903 ft 413 kts 276°
2026-04-27 06:01 22.66247 49.13063 33904 ft 412 kts 276°
2026-04-27 06:01 22.66604 49.06869 33903 ft 412 kts 276°
2026-04-27 06:02 22.66961 49.00669 33904 ft 413 kts 276°
2026-04-27 06:02 22.67318 48.94456 33909 ft 413 kts 275°
2026-04-27 06:03 22.67667 48.88253 33910 ft 412 kts 275°
2026-04-27 06:03 22.68013 48.82113 33910 ft 410 kts 275°
2026-04-27 06:04 22.68357 48.75953 33912 ft 409 kts 275°
2026-04-27 06:04 22.68698 48.69796 33921 ft 409 kts 275°
2026-04-27 06:05 22.69039 48.63631 33922 ft 411 kts 275°
2026-04-27 06:05 22.69378 48.57442 33923 ft 411 kts 275°
2026-04-27 06:06 22.69713 48.51286 33925 ft 412 kts 275°
2026-04-27 06:06 22.70046 48.45101 33938 ft 411 kts 275°
2026-04-27 06:07 22.70377 48.38921 33939 ft 410 kts 275°
2026-04-27 06:07 22.70706 48.32747 33937 ft 410 kts 275°
2026-04-27 06:08 22.71032 48.26581 33945 ft 410 kts 275°
2026-04-27 06:08 22.71353 48.20451 33953 ft 409 kts 275°
2026-04-27 06:09 22.71674 48.14296 33951 ft 409 kts 275°
2026-04-27 06:09 22.71991 48.08133 33949 ft 409 kts 275°
2026-04-27 06:10 22.72308 48.01970 33955 ft 409 kts 275°
2026-04-27 06:10 22.72620 47.95820 33958 ft 409 kts 275°
2026-04-27 06:11 22.72929 47.89714 33956 ft 408 kts 275°
2026-04-27 06:11 22.73238 47.83531 33955 ft 409 kts 275°
2026-04-27 06:12 22.73542 47.77416 33956 ft 409 kts 275°
2026-04-27 06:12 22.73846 47.71262 33956 ft 409 kts 275°
2026-04-27 06:13 22.74098 47.66140 33954 ft 410 kts 275°
2026-04-27 06:13 22.74398 47.59971 33953 ft 410 kts 275°
2026-04-27 06:14 22.74695 47.53809 33955 ft 409 kts 274°
2026-04-27 06:14 22.74990 47.47651 33955 ft 409 kts 274°
2026-04-27 06:15 22.75283 47.41477 33954 ft 409 kts 274°
2026-04-27 06:15 22.75571 47.35355 33954 ft 409 kts 274°
2026-04-27 06:16 22.75860 47.29193 33957 ft 409 kts 274°
2026-04-27 06:16 22.76145 47.23028 33957 ft 409 kts 274°
2026-04-27 06:17 22.76450 47.16860 33954 ft 409 kts 275°
2026-04-27 06:17 22.76875 47.10711 33954 ft 409 kts 275°
2026-04-27 06:18 22.77330 47.04561 33957 ft 409 kts 275°
2026-04-27 06:18 22.77788 46.98493 33957 ft 409 kts 276°
2026-04-27 06:19 22.78258 46.92374 33954 ft 409 kts 276°
2026-04-27 06:19 22.78735 46.86222 33954 ft 409 kts 276°
2026-04-27 06:20 22.79212 46.80075 33954 ft 409 kts 276°
2026-04-27 06:20 22.79690 46.73921 33952 ft 409 kts 275°
2026-04-27 06:21 22.80165 46.67784 33950 ft 408 kts 275°
2026-04-27 06:21 22.80633 46.61683 33948 ft 408 kts 276°
2026-04-27 06:22 22.81105 46.55542 33945 ft 409 kts 276°
2026-04-27 06:22 22.81576 46.49404 33934 ft 409 kts 276°
2026-04-27 06:23 22.82044 46.43258 33933 ft 409 kts 276°
2026-04-27 06:23 22.82494 46.37120 33924 ft 409 kts 275°
2026-04-27 06:24 22.82937 46.30973 33920 ft 408 kts 275°
2026-04-27 06:24 22.83385 46.24838 33921 ft 408 kts 275°
2026-04-27 06:25 22.83833 46.18708 33921 ft 408 kts 275°
2026-04-27 06:25 22.84278 46.12630 33913 ft 408 kts 275°
2026-04-27 06:26 22.84730 46.06434 33909 ft 408 kts 275°
2026-04-27 06:26 22.85163 46.00486 33912 ft 408 kts 275°
2026-04-27 06:27 22.85609 45.94345 33909 ft 407 kts 275°
2026-04-27 06:27 22.86052 45.88228 33915 ft 407 kts 275°
2026-04-27 06:28 22.86491 45.82108 33916 ft 407 kts 275°
2026-04-27 06:28 22.86925 45.75994 33919 ft 407 kts 275°
2026-04-27 06:29 22.87361 45.69869 33924 ft 407 kts 275°
2026-04-27 06:29 22.87796 45.63755 33947 ft 407 kts 275°
2026-04-27 06:30 22.88225 45.57639 33949 ft 407 kts 275°
2026-04-27 06:30 22.88648 45.51565 33952 ft 406 kts 275°
2026-04-27 06:31 22.89075 45.45447 33969 ft 406 kts 275°
2026-04-27 06:31 22.89497 45.39356 33992 ft 405 kts 274°
2026-04-27 06:32 22.89914 45.33270 33993 ft 405 kts 274°
2026-04-27 06:32 22.90324 45.27262 33993 ft 405 kts 274°
2026-04-27 06:33 22.90741 45.21166 34007 ft 405 kts 274°
2026-04-27 06:33 22.91153 45.15073 34015 ft 405 kts 274°
2026-04-27 06:34 22.91559 45.08975 34014 ft 404 kts 274°
2026-04-27 06:34 22.91926 45.02931 34012 ft 404 kts 274°
2026-04-27 06:35 22.92309 44.96839 34005 ft 405 kts 274°
2026-04-27 06:35 22.92697 44.90746 34002 ft 405 kts 274°
2026-04-27 06:36 22.93089 44.84644 34001 ft 405 kts 274°
2026-04-27 06:36 22.93482 44.78538 34001 ft 405 kts 274°
2026-04-27 06:37 22.93874 44.72444 34006 ft 405 kts 274°
2026-04-27 06:37 22.94347 44.66354 34005 ft 405 kts 279°
2026-04-27 06:38 22.95876 44.60500 34004 ft 406 kts 286°
2026-04-27 06:38 22.97643 44.54672 34004 ft 407 kts 286°
2026-04-27 06:39 22.99434 44.48843 34009 ft 407 kts 286°
2026-04-27 06:39 23.01238 44.43016 34011 ft 407 kts 286°
2026-04-27 06:40 23.03047 44.37199 34011 ft 407 kts 286°
2026-04-27 06:40 23.04860 44.31380 34015 ft 407 kts 286°
2026-04-27 06:41 23.06676 44.25559 34021 ft 407 kts 286°
2026-04-27 06:41 23.08492 44.19725 34022 ft 407 kts 286°
2026-04-27 06:42 23.10290 44.13939 34022 ft 407 kts 286°
2026-04-27 06:42 23.12101 44.08112 34021 ft 407 kts 286°
2026-04-27 06:43 23.13912 44.02292 34022 ft 406 kts 286°
2026-04-27 06:43 23.15717 43.96470 34022 ft 406 kts 286°
2026-04-27 06:44 23.17522 43.90638 34022 ft 407 kts 286°
2026-04-27 06:44 23.19326 43.84803 34022 ft 407 kts 286°
2026-04-27 06:45 23.21131 43.78964 34022 ft 407 kts 285°
2026-04-27 06:45 23.22933 43.73121 34022 ft 407 kts 285°
2026-04-27 06:46 23.24734 43.67269 34022 ft 408 kts 285°
2026-04-27 06:46 23.26520 43.61462 34022 ft 408 kts 286°
2026-04-27 06:47 23.28300 43.55592 34022 ft 408 kts 285°
2026-04-27 06:47 23.30048 43.49708 34022 ft 409 kts 285°
2026-04-27 06:48 23.31807 43.43816 34022 ft 409 kts 285°
2026-04-27 06:48 23.33571 43.37920 34022 ft 409 kts 285°
2026-04-27 06:49 23.35322 43.32070 34022 ft 409 kts 285°
2026-04-27 06:49 23.37088 43.26171 34022 ft 409 kts 285°
2026-04-27 06:50 23.38851 43.20273 34022 ft 410 kts 285°
2026-04-27 06:50 23.40315 43.15374 34022 ft 409 kts 285°
2026-04-27 06:51 23.42024 43.09598 34021 ft 409 kts 285°
2026-04-27 06:51 23.43659 43.04072 34020 ft 408 kts 285°
2026-04-27 06:52 23.45399 42.98194 34020 ft 408 kts 285°
2026-04-27 06:52 23.47143 42.92303 34021 ft 408 kts 285°
2026-04-27 06:53 23.48874 42.86455 34016 ft 409 kts 285°
2026-04-27 06:53 23.50620 42.80545 34011 ft 409 kts 285°
2026-04-27 06:54 23.52358 42.74642 34009 ft 409 kts 285°
2026-04-27 06:54 23.54092 42.68734 34010 ft 409 kts 285°
2026-04-27 06:55 23.55831 42.62824 34000 ft 409 kts 285°
2026-04-27 06:55 23.57556 42.56957 33986 ft 407 kts 284°
2026-04-27 06:56 23.59278 42.51090 33985 ft 406 kts 285°
2026-04-27 06:56 23.60999 42.45226 33984 ft 405 kts 284°
2026-04-27 06:57 23.62718 42.39358 33963 ft 407 kts 284°
2026-04-27 06:57 23.64149 42.34472 33953 ft 407 kts 284°
2026-04-27 06:58 23.66696 42.25706 33956 ft 406 kts 284°
2026-04-27 06:59 23.68398 42.19815 33957 ft 406 kts 284°
2026-04-27 06:59 23.70099 42.13933 33945 ft 406 kts 284°
2026-04-27 07:00 23.71799 42.08061 33943 ft 406 kts 284°
2026-04-27 07:00 23.73495 42.02192 33943 ft 405 kts 284°
2026-04-27 07:01 23.75183 41.96330 33937 ft 405 kts 284°
2026-04-27 07:01 23.76876 41.90466 33934 ft 404 kts 284°
2026-04-27 07:02 23.78564 41.84617 33934 ft 404 kts 284°
2026-04-27 07:02 23.80256 41.78753 33932 ft 404 kts 284°
2026-04-27 07:03 23.81932 41.72905 33930 ft 404 kts 284°
2026-04-27 07:03 23.83602 41.67082 33934 ft 404 kts 284°
2026-04-27 07:04 23.85280 41.61232 33934 ft 404 kts 284°
2026-04-27 07:04 23.86954 41.55368 33935 ft 403 kts 284°
2026-04-27 07:05 23.88616 41.49518 33933 ft 403 kts 284°
2026-04-27 07:05 23.90280 41.43662 33934 ft 403 kts 284°
2026-04-27 07:06 23.91939 41.37819 33933 ft 402 kts 284°
2026-04-27 07:06 23.93580 41.32016 33933 ft 401 kts 284°
2026-04-27 07:07 23.95231 41.26190 33934 ft 401 kts 284°
2026-04-27 07:07 23.96883 41.20363 33932 ft 401 kts 283°
2026-04-27 07:08 23.98530 41.14544 33933 ft 400 kts 283°
2026-04-27 07:08 24.00175 41.08722 33934 ft 400 kts 284°
2026-04-27 07:09 24.01819 41.02901 33933 ft 401 kts 284°
2026-04-27 07:09 24.03463 40.97073 33935 ft 401 kts 283°
2026-04-27 07:10 24.05092 40.91243 33935 ft 401 kts 283°
2026-04-27 07:10 24.06726 40.85404 33935 ft 401 kts 283°
2026-04-27 07:11 24.08356 40.79582 33935 ft 400 kts 283°
2026-04-27 07:11 24.09988 40.73756 33948 ft 399 kts 283°
2026-04-27 07:12 24.11612 40.67945 33949 ft 398 kts 283°
2026-04-27 07:12 24.13163 40.62388 33950 ft 397 kts 283°
2026-04-27 07:13 24.14800 40.56619 33953 ft 399 kts 285°
2026-04-27 07:13 24.17371 40.51162 33970 ft 408 kts 299°
2026-04-27 07:14 24.21199 40.46461 33969 ft 417 kts 307°
2026-04-27 07:14 24.25286 40.41940 33970 ft 417 kts 307°
2026-04-27 07:15 24.29356 40.37483 33976 ft 416 kts 307°
2026-04-27 07:15 24.33497 40.32985 33979 ft 416 kts 308°
2026-04-27 07:16 24.37624 40.28575 33984 ft 416 kts 308°
2026-04-27 07:16 24.41785 40.24166 33988 ft 415 kts 308°
2026-04-27 07:16 24.43635 40.21816 33987 ft 400 kts 294°
2026-04-27 07:17 24.44665 40.19049 33993 ft 386 kts 277°
2026-04-27 07:17 24.44769 40.16155 33991 ft 378 kts 260°
2026-04-27 07:17 24.43946 40.13464 33953 ft 369 kts 243°
2026-04-27 07:17 24.42339 40.11350 33855 ft 371 kts 225°
2026-04-27 07:18 24.40054 40.09964 33768 ft 379 kts 206°
2026-04-27 07:18 24.37419 40.09525 33686 ft 388 kts 191°
2026-04-27 07:18 24.34730 40.09455 33598 ft 374 kts 195°
2026-04-27 07:18 24.32224 40.09230 33514 ft 356 kts 199°
2026-04-27 07:19 24.29826 40.08848 33427 ft 339 kts 202°
2026-04-27 07:19 24.27594 40.08256 33094 ft 320 kts 216°
2026-04-27 07:19 24.25691 40.07111 32637 ft 307 kts 222°
2026-04-27 07:19 24.23917 40.05846 32234 ft 302 kts 225°
2026-04-27 07:20 24.22241 40.04486 31848 ft 295 kts 228°
2026-04-27 07:20 24.20679 40.03053 31437 ft 290 kts 231°
2026-04-27 07:20 24.19222 40.01563 30912 ft 289 kts 234°
2026-04-27 07:20 24.17906 39.99953 30676 ft 277 kts 238°
2026-04-27 07:21 24.16724 39.98297 30194 ft 275 kts 241°
2026-04-27 07:21 24.15682 39.96579 29924 ft 267 kts 244°
2026-04-27 07:21 24.14561 39.94960 29592 ft 271 kts 226°
2026-04-27 07:21 24.12816 39.93999 29354 ft 300 kts 203°
2026-04-27 07:22 24.10600 39.93798 29123 ft 330 kts 195°
2026-04-27 07:22 24.08321 39.93439 28878 ft 326 kts 208°
2026-04-27 07:22 24.06399 39.92402 28632 ft 295 kts 230°
2026-04-27 07:22 24.05194 39.90732 28362 ft 267 kts 252°
2026-04-27 07:23 24.04918 39.88774 28126 ft 266 kts 276°
2026-04-27 07:23 24.05519 39.86861 27574 ft 278 kts 289°
2026-04-27 07:23 24.06226 39.84848 26589 ft 290 kts 282°
2026-04-27 07:23 24.06946 39.82776 26194 ft 293 kts 290°
2026-04-27 07:24 24.08068 39.80891 25839 ft 299 kts 300°
2026-04-27 07:24 24.09517 39.79207 25338 ft 309 kts 308°
2026-04-27 07:24 24.11253 39.77761 24919 ft 318 kts 319°
2026-04-27 07:24 24.13253 39.76651 24513 ft 324 kts 325°
2026-04-27 07:25 24.15346 39.75703 24100 ft 327 kts 329°
2026-04-27 07:25 24.17504 39.74891 23698 ft 328 kts 333°
2026-04-27 07:25 24.19722 39.74213 23235 ft 334 kts 339°
2026-04-27 07:25 24.22050 39.73903 22864 ft 341 kts 351°
2026-04-27 07:26 24.24433 39.74119 22488 ft 348 kts
2026-04-27 07:26 24.26749 39.74956 22121 ft 354 kts 21°
2026-04-27 07:26 24.28786 39.76486 21773 ft 357 kts 41°
2026-04-27 07:26 24.30318 39.78592 21375 ft 358 kts 60°
2026-04-27 07:27 24.31226 39.81098 21020 ft 351 kts 80°
2026-04-27 07:27 24.31457 39.83722 20658 ft 342 kts 97°
2026-04-27 07:27 24.31107 39.86269 20279 ft 333 kts 111°
2026-04-27 07:27 24.30303 39.88601 19916 ft 322 kts 124°
2026-04-27 07:28 24.29144 39.90650 19556 ft 312 kts 136°
2026-04-27 07:28 24.27709 39.92377 19180 ft 302 kts 147°
2026-04-27 07:28 24.26060 39.93733 18812 ft 291 kts 158°
2026-04-27 07:28 24.24264 39.94656 18394 ft 281 kts 171°
2026-04-27 07:29 24.22404 39.95143 18046 ft 273 kts 176°
2026-04-27 07:29 24.20563 39.95572 17682 ft 272 kts 176°
2026-04-27 07:29 24.18717 39.95986 17325 ft 270 kts 176°
2026-04-27 07:29 24.16885 39.96386 16982 ft 267 kts 176°
2026-04-27 07:30 24.15050 39.96667 16548 ft 263 kts 187°
2026-04-27 07:30 24.13283 39.96437 16182 ft 253 kts 202°
2026-04-27 07:30 24.11723 39.95619 15787 ft 246 kts 220°
2026-04-27 07:30 24.10557 39.94278 15387 ft 244 kts 238°
2026-04-27 07:31 24.09873 39.92583 14976 ft 246 kts 253°
2026-04-27 07:31 24.09670 39.90716 14577 ft 250 kts 268°
2026-04-27 07:31 24.09956 39.88824 14188 ft 256 kts 282°
2026-04-27 07:31 24.10718 39.87035 13801 ft 263 kts 297°
2026-04-27 07:32 24.11914 39.85519 13425 ft 270 kts 314°
2026-04-27 07:32 24.13517 39.84412 13057 ft 277 kts 331°
2026-04-27 07:32 24.15313 39.83644 12724 ft 278 kts 337°
2026-04-27 07:32 24.17173 39.83035 12372 ft 278 kts 340°
2026-04-27 07:33 24.19042 39.82547 12111 ft 275 kts 344°
2026-04-27 07:33 24.20933 39.82213 11739 ft 277 kts 352°
2026-04-27 07:33 24.22869 39.82308 11414 ft 279 kts
2026-04-27 07:33 24.24704 39.83004 11071 ft 282 kts 27°
2026-04-27 07:34 24.26244 39.84318 10724 ft 281 kts 48°
2026-04-27 07:34 24.27264 39.86126 10396 ft 278 kts 70°
2026-04-27 07:34 24.27658 39.88180 10060 ft 274 kts 90°
2026-04-27 07:34 24.27454 39.90203 9729 ft 269 kts 108°
2026-04-27 07:35 24.26722 39.92067 9366 ft 265 kts 125°
2026-04-27 07:35 24.25548 39.93599 9028 ft 260 kts 143°
2026-04-27 07:35 24.24014 39.94485 8923 ft 244 kts 167°
2026-04-27 07:35 24.22388 39.94921 8636 ft 241 kts 167°
2026-04-27 07:36 24.20744 39.95358 8276 ft 242 kts 167°
2026-04-27 07:36 24.19111 39.95782 7947 ft 241 kts 166°
2026-04-27 07:36 24.17495 39.96199 7603 ft 241 kts 167°
2026-04-27 07:36 24.15860 39.96602 7280 ft 240 kts 173°
2026-04-27 07:37 24.14218 39.96377 6895 ft 242 kts 203°
2026-04-27 07:37 24.12876 39.95264 6369 ft 251 kts 232°
2026-04-27 07:37 24.12199 39.93518 6057 ft 249 kts 263°
2026-04-27 07:37 24.12373 39.91658 5729 ft 247 kts 292°
2026-04-27 07:38 24.13344 39.90153 5415 ft 243 kts 322°
2026-04-27 07:38 24.14826 39.89297 5114 ft 240 kts 338°
2026-04-27 07:38 24.16372 39.88614 4811 ft 239 kts 338°
2026-04-27 07:38 24.17912 39.87936 4736 ft 240 kts 338°
2026-04-27 07:39 24.19497 39.87238 5018 ft 251 kts 338°
2026-04-27 07:39 24.21105 39.86529 4998 ft 244 kts 338°
2026-04-27 07:39 24.22649 39.85849 4881 ft 236 kts 338°
2026-04-27 07:39 24.24152 39.85186 4758 ft 226 kts 338°
2026-04-27 07:40 24.25561 39.84564 4778 ft 211 kts 339°
2026-04-27 07:40 24.26906 39.83970 4707 ft 208 kts 338°
2026-04-27 07:40 24.28187 39.83287 4545 ft 204 kts 331°
2026-04-27 07:40 24.29370 39.82496 4500 ft 196 kts 327°
2026-04-27 07:41 24.30441 39.81679 4500 ft 196 kts 324°
2026-04-27 07:41 24.31583 39.80722 4505 ft 199 kts 322°
2026-04-27 07:41 24.32662 39.79761 4504 ft 200 kts 321°
2026-04-27 07:41 24.33725 39.78778 4490 ft 201 kts 320°
2026-04-27 07:42 24.34769 39.77789 4499 ft 200 kts 320°
2026-04-27 07:42 24.35814 39.76786 4501 ft 198 kts 319°
2026-04-27 07:42 24.36832 39.75796 4502 ft 198 kts 319°
2026-04-27 07:42 24.37908 39.74835 4489 ft 198 kts 334°
2026-04-27 07:43 24.39206 39.74357 4511 ft 198 kts 345°
2026-04-27 07:43 24.40552 39.74000 4507 ft 199 kts 347°
2026-04-27 07:43 24.41923 39.73682 4411 ft 203 kts 348°
2026-04-27 07:43 24.42847 39.73479 4265 ft 205 kts 348°
2026-04-27 07:44 24.44702 39.73081 3947 ft 203 kts 348°
2026-04-27 07:44 24.46068 39.72789 3719 ft 196 kts 348°
2026-04-27 07:44 24.47379 39.72510 3465 ft 186 kts 348°
2026-04-27 07:44 24.48608 39.72249 3222 ft 173 kts 348°
2026-04-27 07:45 24.49377 39.72085 3049 ft 166 kts 348°
2026-04-27 07:45 24.50494 39.71849 2831 ft 159 kts 348°
2026-04-27 07:45 24.51560 39.71627 2633 ft 158 kts 349°
2026-04-27 07:45 24.52638 39.71404 2457 ft 155 kts 348°
2026-04-27 07:46 24.53710 39.71167 2240 ft 158 kts 349°
2026-04-27 07:46 24.54751 39.70945 2172 ft 142 kts 349°
2026-04-27 07:46 24.55539 39.70785 2168 ft 76 kts 349°
2026-04-27 07:46 24.55946 39.70692 2168 ft 52 kts 347°
2026-04-27 07:47 24.56204 39.70593 2168 ft 31 kts 315°
2026-04-27 07:47 24.56320 39.70456 2168 ft 22 kts 295°
2026-04-27 07:47 24.56318 39.70315 2168 ft 15 kts 225°
2026-04-27 07:47 24.56219 39.70290 2168 ft 15 kts 183°
2026-04-27 07:48 24.56117 39.70283 2168 ft 15 kts 184°
2026-04-27 07:48 24.56018 39.70276 2168 ft 14 kts 184°
2026-04-27 07:48 24.55919 39.70269 2168 ft 14 kts 184°
2026-04-27 07:48 24.55820 39.70262 2168 ft 14 kts 184°
2026-04-27 07:49 24.55723 39.70255 2168 ft 14 kts 184°
2026-04-27 07:49 24.55626 39.70248 2168 ft 14 kts 184°
2026-04-27 07:49 24.55530 39.70241 2168 ft 14 kts 184°
2026-04-27 07:49 24.55434 39.70234 2168 ft 14 kts 184°
2026-04-27 07:50 24.55338 39.70227 2168 ft 14 kts 184°
2026-04-27 07:50 24.55243 39.70218 2168 ft 14 kts 184°
2026-04-27 07:50 24.55149 39.70216 2168 ft 14 kts 178°
2026-04-27 07:50 24.55053 39.70212 2168 ft 14 kts 187°
2026-04-27 07:51 24.54960 39.70199 2168 ft 14 kts 185°
2026-04-27 07:51 24.54849 39.70190 2168 ft 8 kts 188°
2026-04-27 07:51 24.54830 39.70117 2168 ft 16 kts 294°
2026-04-27 07:51 24.54940 39.70031 2168 ft 23 kts 337°
2026-04-27 07:52 24.55032 39.69938 2168 ft 15 kts 282°
2026-04-27 07:52 24.55014 39.69878 2168 ft 7 kts 236°
2026-04-27 07:52 24.54992 39.69839 2168 ft 6 kts 240°
2026-04-27 07:52 24.54985 39.69824 2168 ft 1 kts 240°
2026-04-27 07:53 24.54983 39.69820 2168 ft 0 kts 239°